VPCOH EKVG-EGAC

Flight info

Callsign VPCOH
Flight time 1h 13m
Altitude 37000
Route RAKUP DCT DOSUN DCT STN DCT BRUCE DCT MAC
Aircraft B738/M-SDE2E3FGHIRWXY/LB1

Departure

Time 2026-04-28 21:57
Airport Vágar Airport (EKVG)

Arrival

Time 2026-04-28 23:11
Airport George Best Belfast City Airport (EGAC)
Time Latitude Longitude Altitude Speed Heading
2026-04-28 21:57 61.91223 -7.01998 9801 ft 273 kts 172°
2026-04-28 21:57 61.89361 -7.00916 10516 ft 286 kts 172°
2026-04-28 21:57 61.87339 -6.99755 10737 ft 315 kts 171°
2026-04-28 21:58 61.85147 -6.98493 11024 ft 337 kts 170°
2026-04-28 21:58 61.82853 -6.97155 11697 ft 345 kts 170°
2026-04-28 21:58 61.80527 -6.95788 12526 ft 348 kts 170°
2026-04-28 21:58 61.78177 -6.94407 13389 ft 352 kts 170°
2026-04-28 21:59 61.75798 -6.93013 14239 ft 357 kts 170°
2026-04-28 21:59 61.73385 -6.91606 15014 ft 362 kts 170°
2026-04-28 21:59 61.70972 -6.90202 15816 ft 366 kts 169°
2026-04-28 22:00 61.65975 -6.87308 17397 ft 376 kts 169°
2026-04-28 22:00 61.63433 -6.85840 18174 ft 381 kts 169°
2026-04-28 22:00 61.60857 -6.84356 18900 ft 386 kts 169°
2026-04-28 22:00 61.58252 -6.82857 19571 ft 390 kts 169°
2026-04-28 22:01 61.55618 -6.81344 20225 ft 394 kts 169°
2026-04-28 22:01 61.52959 -6.79818 20912 ft 398 kts 169°
2026-04-28 22:01 61.51180 -6.78799 21329 ft 401 kts 169°
2026-04-28 22:01 61.47582 -6.76743 22160 ft 407 kts 168°
2026-04-28 22:02 61.44801 -6.75157 22788 ft 411 kts 168°
2026-04-28 22:02 61.42968 -6.74113 23183 ft 414 kts 168°
2026-04-28 22:02 61.39256 -6.72004 23988 ft 419 kts 168°
2026-04-28 22:02 61.37351 -6.70922 24303 ft 422 kts 168°
2026-04-28 22:03 61.33575 -6.68784 24976 ft 426 kts 168°
2026-04-28 22:03 61.31635 -6.67687 25317 ft 428 kts 168°
2026-04-28 22:03 61.28752 -6.66060 25805 ft 431 kts 168°
2026-04-28 22:03 61.25852 -6.64427 26271 ft 434 kts 167°
2026-04-28 22:04 61.22961 -6.62802 26723 ft 437 kts 167°
2026-04-28 22:04 61.20013 -6.61148 27181 ft 440 kts 167°
2026-04-28 22:04 61.17048 -6.59488 27615 ft 443 kts 167°
2026-04-28 22:04 61.14057 -6.57816 28060 ft 446 kts 167°
2026-04-28 22:05 61.11046 -6.56136 28488 ft 449 kts 167°
2026-04-28 22:05 61.08019 -6.54450 28904 ft 451 kts 167°
2026-04-28 22:05 61.04977 -6.52759 29298 ft 454 kts 167°
2026-04-28 22:05 61.01908 -6.51059 29681 ft 457 kts 167°
2026-04-28 22:06 60.98811 -6.49584 30038 ft 458 kts 174°
2026-04-28 22:06 60.95635 -6.48990 30405 ft 459 kts 178°
2026-04-28 22:06 60.92443 -6.48665 30743 ft 460 kts 179°
2026-04-28 22:06 60.89242 -6.48412 31166 ft 459 kts 180°
2026-04-28 22:07 60.86096 -6.48150 31617 ft 458 kts 179°
2026-04-28 22:07 60.82920 -6.47849 32041 ft 457 kts 179°
2026-04-28 22:07 60.79735 -6.47508 32425 ft 457 kts 179°
2026-04-28 22:07 60.76554 -6.47141 32816 ft 457 kts 179°
2026-04-28 22:08 60.73376 -6.46759 33233 ft 457 kts 179°
2026-04-28 22:08 60.70205 -6.46371 33659 ft 456 kts 179°
2026-04-28 22:08 60.67039 -6.45984 34052 ft 455 kts 179°
2026-04-28 22:08 60.63872 -6.45597 34437 ft 455 kts 179°
2026-04-28 22:09 60.60749 -6.45218 34780 ft 455 kts 179°
2026-04-28 22:09 60.57593 -6.44837 35149 ft 453 kts 179°
2026-04-28 22:09 60.54454 -6.44460 35533 ft 451 kts 179°
2026-04-28 22:09 60.51318 -6.44084 35865 ft 451 kts 179°
2026-04-28 22:10 60.48183 -6.43709 36195 ft 450 kts 179°
2026-04-28 22:10 60.45053 -6.43336 36550 ft 449 kts 179°
2026-04-28 22:10 60.41926 -6.42963 36915 ft 448 kts 179°
2026-04-28 22:10 60.38821 -6.42594 37264 ft 447 kts 179°
2026-04-28 22:11 60.35707 -6.42225 37458 ft 449 kts 179°
2026-04-28 22:11 60.29436 -6.41485 37449 ft 451 kts 179°
2026-04-28 22:12 60.23215 -6.40748 37442 ft 444 kts 179°
2026-04-28 22:12 60.17082 -6.40028 37455 ft 443 kts 179°
2026-04-28 22:13 60.10927 -6.39309 37449 ft 442 kts 179°
2026-04-28 22:13 60.04781 -6.38594 37453 ft 442 kts 179°
2026-04-28 22:14 59.98630 -6.37880 37456 ft 443 kts 179°
2026-04-28 22:14 59.92479 -6.37169 37459 ft 443 kts 179°
2026-04-28 22:15 59.86313 -6.36459 37458 ft 444 kts 179°
2026-04-28 22:15 59.80185 -6.35755 37460 ft 444 kts 179°
2026-04-28 22:16 59.74009 -6.35048 37466 ft 445 kts 179°
2026-04-28 22:16 59.67827 -6.34344 37465 ft 445 kts 179°
2026-04-28 22:17 59.61630 -6.33640 37467 ft 445 kts 179°
2026-04-28 22:17 59.55442 -6.32940 37468 ft 446 kts 179°
2026-04-28 22:18 59.49256 -6.32242 37468 ft 446 kts 179°
2026-04-28 22:18 59.43101 -6.31551 37470 ft 446 kts 179°
2026-04-28 22:19 59.36908 -6.30858 37471 ft 445 kts 179°
2026-04-28 22:19 59.30707 -6.30166 37473 ft 445 kts 179°
2026-04-28 22:20 59.24519 -6.29479 37470 ft 445 kts 179°
2026-04-28 22:20 59.18334 -6.28795 37474 ft 445 kts 179°
2026-04-28 22:21 59.12138 -6.28111 37475 ft 445 kts 179°
2026-04-28 22:21 59.05941 -6.27430 37479 ft 446 kts 179°
2026-04-28 22:22 58.99781 -6.26756 37476 ft 446 kts 179°
2026-04-28 22:22 58.93584 -6.26080 37478 ft 446 kts 179°
2026-04-28 22:23 58.87369 -6.25404 37483 ft 447 kts 179°
2026-04-28 22:23 58.81149 -6.24731 37478 ft 447 kts 179°
2026-04-28 22:24 58.74930 -6.24060 37482 ft 448 kts 179°
2026-04-28 22:24 58.68743 -6.23394 37481 ft 448 kts 179°
2026-04-28 22:25 58.62513 -6.22726 37488 ft 449 kts 179°
2026-04-28 22:25 58.56266 -6.22059 37480 ft 449 kts 179°
2026-04-28 22:26 58.50025 -6.21395 37483 ft 449 kts 179°
2026-04-28 22:26 58.43769 -6.20732 37485 ft 450 kts 178°
2026-04-28 22:27 58.37510 -6.20071 37482 ft 450 kts 178°
2026-04-28 22:27 58.31289 -6.19416 37485 ft 450 kts 178°
2026-04-28 22:28 58.25029 -6.18758 37482 ft 451 kts 178°
2026-04-28 22:28 58.18762 -6.18065 37484 ft 451 kts 177°
2026-04-28 22:29 58.12501 -6.16957 37479 ft 452 kts 175°
2026-04-28 22:29 58.06241 -6.15730 37471 ft 452 kts 175°
2026-04-28 22:30 57.99983 -6.14545 37479 ft 452 kts 175°
2026-04-28 22:30 57.93706 -6.13399 37484 ft 453 kts 175°
2026-04-28 22:31 57.87468 -6.12277 37477 ft 453 kts 175°
2026-04-28 22:31 57.81187 -6.11152 37480 ft 453 kts 175°
2026-04-28 22:32 57.74907 -6.10030 37472 ft 453 kts 175°
2026-04-28 22:32 57.68631 -6.08912 37481 ft 453 kts 175°
2026-04-28 22:33 57.62346 -6.07796 37481 ft 453 kts 175°
2026-04-28 22:33 57.56103 -6.06692 37478 ft 453 kts 175°
2026-04-28 22:34 57.49818 -6.05584 37477 ft 453 kts 175°
2026-04-28 22:34 57.43533 -6.04479 37482 ft 453 kts 175°
2026-04-28 22:35 57.37250 -6.03379 37481 ft 453 kts 175°
2026-04-28 22:35 57.30966 -6.02282 37483 ft 454 kts 175°
2026-04-28 22:36 57.24712 -6.01195 37484 ft 454 kts 175°
2026-04-28 22:36 57.18411 -6.00103 37481 ft 454 kts 175°
2026-04-28 22:37 57.12114 -5.99015 37473 ft 454 kts 174°
2026-04-28 22:37 57.05814 -5.97930 37480 ft 455 kts 174°
2026-04-28 22:38 56.99513 -5.96850 37482 ft 455 kts 174°
2026-04-28 22:38 56.93205 -5.95771 37470 ft 455 kts 174°
2026-04-28 22:39 56.86887 -5.94695 37481 ft 455 kts 174°
2026-04-28 22:39 56.80602 -5.93627 37481 ft 456 kts 174°
2026-04-28 22:40 56.74279 -5.92557 37483 ft 456 kts 174°
2026-04-28 22:40 56.67942 -5.91488 37476 ft 457 kts 174°
2026-04-28 22:41 56.61613 -5.90424 37473 ft 457 kts 174°
2026-04-28 22:41 56.55305 -5.89368 37475 ft 457 kts 174°
2026-04-28 22:42 56.48958 -5.88308 37470 ft 458 kts 174°
2026-04-28 22:42 56.42608 -5.87251 37481 ft 458 kts 174°
2026-04-28 22:43 56.36258 -5.86197 37480 ft 459 kts 174°
2026-04-28 22:43 56.29898 -5.85145 37480 ft 459 kts 174°
2026-04-28 22:44 56.23578 -5.84104 37476 ft 459 kts 173°
2026-04-28 22:44 56.17237 -5.82734 37085 ft 464 kts 171°
2026-04-28 22:44 56.14038 -5.81925 36496 ft 462 kts 170°
2026-04-28 22:45 56.10859 -5.81113 35779 ft 461 kts 170°
2026-04-28 22:45 56.07678 -5.80311 35046 ft 463 kts 170°
2026-04-28 22:45 56.04481 -5.79521 34238 ft 464 kts 170°
2026-04-28 22:45 56.01269 -5.78742 33342 ft 466 kts 170°
2026-04-28 22:46 55.98047 -5.77970 32481 ft 467 kts 170°
2026-04-28 22:46 55.94819 -5.77202 31603 ft 468 kts 170°
2026-04-28 22:46 55.91583 -5.76434 30701 ft 470 kts 170°
2026-04-28 22:46 55.88347 -5.75668 29844 ft 467 kts 169°
2026-04-28 22:47 55.85139 -5.74912 29118 ft 461 kts 169°
2026-04-28 22:47 55.81980 -5.74167 28438 ft 455 kts 169°
2026-04-28 22:47 55.78863 -5.73433 27753 ft 449 kts 169°
2026-04-28 22:47 55.75781 -5.72708 27086 ft 444 kts 169°
2026-04-28 22:48 55.72780 -5.72001 26433 ft 439 kts 169°
2026-04-28 22:48 55.69762 -5.71291 25782 ft 435 kts 169°
2026-04-28 22:48 55.66778 -5.70590 25140 ft 430 kts 169°
2026-04-28 22:48 55.63819 -5.69896 24495 ft 427 kts 168°
2026-04-28 22:49 55.60887 -5.69209 23791 ft 424 kts 168°
2026-04-28 22:49 55.57969 -5.68527 23059 ft 420 kts 168°
2026-04-28 22:49 55.55090 -5.67856 22405 ft 414 kts 168°
2026-04-28 22:49 55.52250 -5.67194 21761 ft 409 kts 168°
2026-04-28 22:50 55.49436 -5.66539 21128 ft 405 kts 168°
2026-04-28 22:50 55.47592 -5.66110 20713 ft 402 kts 168°
2026-04-28 22:50 55.43870 -5.65478 19869 ft 402 kts 175°
2026-04-28 22:50 55.41112 -5.65851 19187 ft 406 kts 185°
2026-04-28 22:51 55.38348 -5.67029 18481 ft 408 kts 191°
2026-04-28 22:51 55.35617 -5.68320 17778 ft 405 kts 191°
2026-04-28 22:51 55.33783 -5.69192 17335 ft 402 kts 191°
2026-04-28 22:51 55.30222 -5.70873 16508 ft 397 kts 191°
2026-04-28 22:52 55.28459 -5.71696 16092 ft 395 kts 190°
2026-04-28 22:52 55.25821 -5.72919 15486 ft 390 kts 190°
2026-04-28 22:52 55.23200 -5.74124 14882 ft 387 kts 190°
2026-04-28 22:52 55.20606 -5.75311 14281 ft 383 kts 190°
2026-04-28 22:53 55.18026 -5.76486 13610 ft 380 kts 190°
2026-04-28 22:53 55.15477 -5.77645 12984 ft 376 kts 191°
2026-04-28 22:53 55.12983 -5.78778 12390 ft 372 kts 191°
2026-04-28 22:53 55.10495 -5.79906 11798 ft 368 kts 191°
2026-04-28 22:54 55.08028 -5.81024 11245 ft 364 kts 191°
2026-04-28 22:54 55.05632 -5.82110 11098 ft 348 kts 191°
2026-04-28 22:54 55.03337 -5.83151 10947 ft 334 kts 191°
2026-04-28 22:54 55.01131 -5.84150 10798 ft 321 kts 191°
2026-04-28 22:55 54.99006 -5.85109 10666 ft 309 kts 191°
2026-04-28 22:55 54.96959 -5.86032 10535 ft 298 kts 191°
2026-04-28 22:55 54.95000 -5.86913 10332 ft 292 kts 191°
2026-04-28 22:55 54.93039 -5.87792 9992 ft 290 kts 191°
2026-04-28 22:56 54.91095 -5.88663 9676 ft 287 kts 191°
2026-04-28 22:56 54.89167 -5.89526 9359 ft 285 kts 191°
2026-04-28 22:56 54.87322 -5.90784 9044 ft 287 kts 205°
2026-04-28 22:56 54.85601 -5.92509 8738 ft 285 kts 208°
2026-04-28 22:57 54.83905 -5.94278 8432 ft 283 kts 208°
2026-04-28 22:57 54.82225 -5.96043 8144 ft 280 kts 208°
2026-04-28 22:57 54.80566 -5.97791 7845 ft 278 kts 208°
2026-04-28 22:57 54.78920 -5.99527 7564 ft 275 kts 208°
2026-04-28 22:58 54.77291 -6.01243 7283 ft 273 kts 208°
2026-04-28 22:58 54.75676 -6.02944 7016 ft 271 kts 208°
2026-04-28 22:58 54.74085 -6.04618 6528 ft 275 kts 208°
2026-04-28 22:58 54.72423 -6.06360 6086 ft 279 kts 208°
2026-04-28 22:59 54.70763 -6.08099 5758 ft 278 kts 208°
2026-04-28 22:59 54.69127 -6.09816 5496 ft 274 kts 208°
2026-04-28 22:59 54.67512 -6.11512 5247 ft 269 kts 208°
2026-04-28 22:59 54.65920 -6.13185 5011 ft 264 kts 208°
2026-04-28 23:00 54.64369 -6.14819 4800 ft 259 kts 208°
2026-04-28 23:00 54.62850 -6.16424 4618 ft 253 kts 208°
2026-04-28 23:00 54.61369 -6.17993 4467 ft 246 kts 208°
2026-04-28 23:00 54.59933 -6.19525 4360 ft 241 kts 208°
2026-04-28 23:01 54.58538 -6.21019 4302 ft 229 kts 208°
2026-04-28 23:01 54.57236 -6.22427 4250 ft 213 kts 208°
2026-04-28 23:01 54.56035 -6.23738 4085 ft 205 kts 208°
2026-04-28 23:01 54.54836 -6.25049 3835 ft 203 kts 208°
2026-04-28 23:02 54.53617 -6.26221 3555 ft 197 kts 191°
2026-04-28 23:02 54.52310 -6.26256 3291 ft 183 kts 155°
2026-04-28 23:02 54.51275 -6.25123 3091 ft 172 kts 137°
2026-04-28 23:02 54.50411 -6.23714 3029 ft 170 kts 129°
2026-04-28 23:03 54.49605 -6.22234 2993 ft 168 kts 129°
2026-04-28 23:03 54.48808 -6.20782 3000 ft 167 kts 130°
2026-04-28 23:03 54.48002 -6.19330 3000 ft 169 kts 130°
2026-04-28 23:03 54.47195 -6.17891 3005 ft 169 kts 130°
2026-04-28 23:04 54.46398 -6.16481 2996 ft 159 kts 130°
2026-04-28 23:04 54.44941 -6.13913 2989 ft 147 kts 130°
2026-04-28 23:04 54.44364 -6.12496 2991 ft 143 kts 108°
2026-04-28 23:05 54.44157 -6.10836 2994 ft 143 kts 90°
2026-04-28 23:05 54.44345 -6.09166 2995 ft 144 kts 70°
2026-04-28 23:05 54.44920 -6.07758 2991 ft 148 kts 42°
2026-04-28 23:05 54.45740 -6.06695 2992 ft 148 kts 43°
2026-04-28 23:06 54.46548 -6.05634 3003 ft 149 kts 41°
2026-04-28 23:06 54.47392 -6.04580 2994 ft 150 kts 40°
2026-04-28 23:06 54.48237 -6.03551 3004 ft 148 kts 40°
2026-04-28 23:06 54.49059 -6.02560 2975 ft 142 kts 40°
2026-04-28 23:07 54.49867 -6.01588 2795 ft 140 kts 40°
2026-04-28 23:07 54.50664 -6.00629 2604 ft 139 kts 40°
2026-04-28 23:07 54.51442 -5.99695 2425 ft 133 kts 41°
2026-04-28 23:07 54.52187 -5.98800 2255 ft 128 kts 41°
2026-04-28 23:08 54.52918 -5.97920 2071 ft 127 kts 41°
2026-04-28 23:08 54.53649 -5.97043 1891 ft 129 kts 40°
2026-04-28 23:08 54.54382 -5.96162 1704 ft 130 kts 40°
2026-04-28 23:08 54.55115 -5.95282 1534 ft 128 kts 40°
2026-04-28 23:09 54.55851 -5.94398 1356 ft 129 kts 39°
2026-04-28 23:09 54.56592 -5.93508 1172 ft 131 kts 38°
2026-04-28 23:09 54.57339 -5.92613 976 ft 130 kts 37°
2026-04-28 23:09 54.58092 -5.91709 806 ft 133 kts 37°
2026-04-28 23:10 54.58856 -5.90792 620 ft 134 kts 36°
2026-04-28 23:10 54.59614 -5.89883 430 ft 135 kts 36°
2026-04-28 23:10 54.60396 -5.88947 248 ft 135 kts 36°
2026-04-28 23:10 54.61156 -5.88039 55 ft 134 kts 36°
2026-04-28 23:11 54.61869 -5.87170 18 ft 105 kts 36°
2026-04-28 23:11 54.62238 -5.86729 19 ft 21 kts 34°
2026-04-28 23:11 54.62357 -5.86588 22 ft 19 kts 34°
2026-04-28 23:11 54.62419 -5.86491 20 ft 7 kts 70°
2026-04-28 23:12 54.62456 -5.86465 19 ft 7 kts 308°
2026-04-28 23:12 54.62426 -5.86526 20 ft 7 kts 211°
2026-04-28 23:12 54.62383 -5.86572 22 ft 8 kts 211°
2026-04-28 23:12 54.62308 -5.86660 19 ft 20 kts 214°
2026-04-28 23:13 54.62157 -5.86840 16 ft 33 kts 214°
2026-04-28 23:13 54.61960 -5.87076 17 ft 35 kts 215°
2026-04-28 23:13 54.61830 -5.87153 17 ft 18 kts 141°
2026-04-28 23:13 54.61766 -5.86992 20 ft 1 kts 123°
2026-04-28 23:14 54.61750 -5.86987 20 ft 5 kts 175°
2026-04-28 23:14 54.61709 -5.87015 20 ft 7 kts 210°
2026-04-28 23:14 54.61667 -5.87065 20 ft 5 kts 216°
2026-04-28 23:14 54.61659 -5.87064 20 ft 2 kts 162°
2026-04-28 23:15 54.61667 -5.87041 20 ft 0 kts 30°
2026-04-28 23:15 54.61670 -5.87011 20 ft 2 kts 117°
2026-04-28 23:15 54.61657 -5.86974 22 ft 4 kts 123°
2026-04-28 23:15 54.61655 -5.86968 22 ft 0 kts 124°